Location: Ann Arbor
(42.2710°N, 83.7260°W)
Time: 02:48:03
(UTC-05:00)

Tiangong 1 - Visible Passes

Search period start: 11 December 2017 00:00
Search period end: 21 December 2017 00:00
Orbit: 276 x 303 km, 42.8° (Epoch: 10 December)

Date Brightness Start Highest point End Pass type
(mag) Time Alt. Az. Time Alt. Az. Time Alt. Az.
18 Dec 3.6 07:09:11 10° S 07:10:48 15° SSE 07:12:27 10° ESE visible
19 Dec 2.7 07:12:26 10° SW 07:14:37 26° SSE 07:16:50 10° E visible
20 Dec 1.6 07:15:59 10° SW 07:18:24 44° SSE 07:20:51 10° E visible
